SCP
1 1 1 0 0 0 0 0 0 0 0 0 0 0 0 0 0 0 0 0 0 0 0 0 0 0 0 0 0 0 0 0 0 0 0 0 0 0 0 0 0 0 0 1 1 1 1 1 1
1 1 1 0 0 0 0 0 0 0 0 0 0 0 0 0 0 0 0 0 0 0 0 0 0 0 0 0 0 0 0 0 0 0 0 0 0 0 0 0 0 0 1 1 1 0 0 1 1
1 1 0 0 0 0 0 0 0 0 0 0 0 0 0 0 0 0 0 0 0 0 1 1 1 1 1 0 0 0 0 0 0 0 0 0 0 0 0 0 0 0 0 1 0 0 0 0 1
0 0 0 0 0 0 0 0 0 0 0 0 0 0 0 0 0 0 0 0 1 1 1 1 1 1 1 1 1 1 1 0 0 0 0 0 0 1 1 1 0 0 0 0 0 0 0 0 0
0 0 0 0 0 0 0 0 0 0 0 0 0 0 0 0 0 0 0 0 1 1 1 1 1 1 1 1 1 1 1 1 1 0 0 0 0 1 1 1 0 0 0 0 0 0 0 0 0
0 0 0 0 0 0 0 0 0 0 0 0 0 0 0 0 0 0 0 0 1 1 1 1 1 1 1 1 1 1 1 1 1 1 1 0 0 1 1 1 1 0 0 0 0 0 0 0 0
0 0 0 0 0 0 0 0 0 0 0 0 0 0 0 0 0 0 0 0 0 1 0 0 1 1 1 1 1 1 1 1 1 1 1 1 1 1 1 1 1 0 0 0 0 0 0 0 0
0 0 0 0 0 0 0 0 0 0 0 0 0 0 0 0 0 0 0 0 0 0 0 0 0 0 0 0 1 1 1 1 1 1 1 1 1 1 1 1 1 1 0 0 0 0 0 0 0
0 0 0 0 0 0 0 0 0 0 0 0 0 0 0 0 0 0 0 0 0 0 0 0 0 0 0 0 0 1 1 1 1 1 1 1 1 1 1 1 1 1 1 0 1 1 0 0 0
0 0 0 0 0 0 0 0 0 0 0 0 0 0 0 0 0 0 0 0 0 0 0 0 0 0 0 0 0 0 0 1 1 1 1 1 1 1 1 1 1 1 1 1 1 1 0 0 0
0 0 0 0 0 0 0 0 0 0 0 0 0 0 0 0 0 0 0 0 0 0 0 0 0 0 0 0 0 0 0 1 1 1 1 1 1 1 1 1 1 1 1 1 1 1 1 1 0
0 0 0 0 0 0 0 0 0 0 0 0 0 0 0 0 0 0 0 0 0 0 0 0 0 0 0 0 0 0 1 1 1 1 1 1 1 1 1 1 1 1 1 1 1 1 1 1 1
0 0 0 0 0 0 0 0 0 0 0 0 0 0 0 0 0 0 0 0 0 0 0 0 0 0 0 0 0 0 1 1 1 1 1 1 1 1 1 1 1 1 1 1 1 1 1 1 1
0 0 0 0 0 0 0 0 0 0 0 0 0 0 0 0 0 0 0 0 0 0 0 0 0 0 0 0 0 0 0 1 1 1 1 1 1 1 1 1 1 1 1 1 1 1 1 1 1
0 0 0 0 0 0 0 0 0 0 0 0 0 0 0 0 0 0 0 0 0 0 0 0 0 0 0 0 0 0 0 0 1 1 1 1 1 1 1 1 1 1 1 1 1 1 1 1 1
0 0 0 0 0 0 0 0 0 0 0 1 0 0 0 0 0 0 0 0 0 0 0 0 0 0 0 0 0 0 0 0 0 1 1 1 1 1 1 1 1 1 1 1 1 1 1 1 1
0 0 0 0 0 0 0 0 0 0 0 0 0 0 0 0 0 0 0 0 0 0 0 0 0 0 0 0 0 0 0 0 0 0 0 1 1 1 1 1 1 1 1 1 1 1 1 1 1
0 0 0 0 0 1 0 0 0 0 0 0 0 0 0 0 0 0 0 0 0 0 0 0 0 0 0 0 0 0 0 0 0 0 0 0 0 0 1 1 1 1 1 1 1 1 1 1 1
0 0 0 0 0 1 0 0 0 0 0 0 0 0 0 0 0 0 0 0 0 0 0 0 0 0 0 0 0 0 0 0 0 0 0 0 0 0 0 1 1 1 1 1 1 1 1 1 1
0 0 0 0 0 0 0 0 0 0 0 0 0 0 0 0 0 0 0 0 0 0 0 0 0 0 0 0 0 0 0 0 0 0 0 0 0 0 0 0 1 1 1 1 1 1 1 1 1
0 0 0 0 0 0 0 0 0 0 0 0 0 0 0 0 0 0 0 0 0 0 0 0 0 0 0 0 0 0 0 0 0 0 0 0 0 0 0 0 1 1 1 1 1 1 1 1 1
0 0 0 0 0 0 0 0 0 0 0 0 0 0 0 0 0 0 0 0 0 0 0 0 0 0 0 0 0 0 0 0 0 0 0 0 0 0 0 0 0 1 1 1 1 1 1 1 1
0 0 0 0 0 0 0 0 0 0 0 0 0 0 0 0 0 0 0 0 0 0 0 0 0 0 0 0 0 0 0 0 0 0 0 0 0 0 0 0 0 1 1 1 1 1 1 0 0
0 0 0 0 0 0 0 0 0 0 0 0 0 0 0 0 0 0 0 0 0 0 0 0 0 0 0 0 0 0 0 0 0 0 0 0 0 0 0 0 0 0 1 1 1 1 1 1 0
0 0 0 0 0 0 0 0 0 0 0 0 0 0 0 0 0 0 0 0 0 0 0 0 0 0 0 0 0 0 0 0 0 0 0 0 0 0 0 0 0 0 1 1 1 1 1 1 0
0 0 0 0 0 0 0 0 0 0 0 0 0 0 0 0 0 0 0 0 0 0 0 0 0 0 0 0 0 0 0 0 0 0 0 0 0 0 0 0 0 0 0 1 1 1 1 1 1
0 0 0 0 0 0 0 0 0 0 0 0 0 0 0 0 0 0 0 0 0 0 0 0 0 0 0 0 0 0 0 0 0 0 0 0 0 0 0 0 0 0 0 1 1 1 1 1 1
0 0 0 0 0 0 0 0 0 0 0 0 0 0 0 0 0 0 0 0 0 0 0 0 0 0 0 0 0 0 0 0 0 0 0 0 0 0 0 0 0 0 0 0 1 1 1 1 1
0 0 0 0 0 0 0 0 0 0 0 0 0 0 0 0 0 0 0 0 0 0 0 0 0 0 0 0 0 0 0 0 0 0 0 0 0 0 0 0 0 0 0 0 0 0 0 1 1
0 0 0 0 0 0 0 0 0 0 0 0 0 0 0 0 0 0 0 0 0 0 0 0 0 0 0 0 0 0 0 0 0 0 0 0 0 0 0 0 0 0 0 0 0 0 0 1 1
Wind_Speed
5 4 2 3 5 6 4 5 3 3 4 3 5 6 6 4 3 1 2 2 2 3 3 5 7 7 6 6 6 6 6 6 6 6 6 6 6 6 5 5 4 4 4 4 3 3 4 4 3
3 3 2 4 6 4 4 5 4 4 2 2 5 5 6 5 3 2 1 0 2 3 3 3 6 7 6 6 6 6 6 6 6 6 6 6 6 6 5 5 4 4 4 4 3 3 3 3 3
3 1 3 5 5 2 2 4 2 3 6 4 4 5 5 4 4 2 2 1 2 2 1 2 5 5 6 6 6 6 6 6 6 6 6 6 6 6 5 5 5 4 4 4 3 3 2 2 2
3 3 4 6 5 2 2 3 4 3 5 7 4 5 4 5 4 2 3 3 3 2 1 1 3 4 5 6 6 6 6 7 7 7 7 7 6 6 6 6 5 5 5 4 4 3 3 2 1
3 4 6 5 3 2 2 5 5 4 4 6 4 4 4 6 6 5 5 4 3 2 1 2 2 3 4 5 6 7 7 8 8 8 8 8 8 7 7 7 6 6 5 5 5 4 4 3 2
4 5 5 2 1 2 2 4 4 6 4 5 5 4 3 5 7 5 5 5 4 2 2 3 4 4 4 5 6 7 8 8 9 9 9 9 9 9 8 8 7 7 7 6 6 5 5 4 3
4 5 4 3 1 1 2 2 4 4 4 5 4 3 2 4 5 5 5 5 5 4 3 3 3 4 5 6 7 7 8 9 9 9 10 9 9 9 9 9 9 9 9 8 7 6 6 5 4
4 5 4 2 2 0 2 2 3 4 3 4 4 4 2 3 3 4 6 6 6 6 5 5 5 5 5 5 7 8 8 8 8 9 9 9 10 10 10 10 10 10 10 10 9 8 7 6 6
4 6 2 3 4 2 1 2 3 3 4 5 5 3 2 2 3 5 6 6 6 6 5 5 5 5 5 5 7 8 8 8 8 7 8 8 4 5 6 9 11 11 11 11 10 9 8 7 6
4 4 2 2 3 4 2 3 2 3 4 4 4 5 5 5 6 7 6 6 6 5 5 4 5 5 5 5 4 4 4 4 4 3 4 3 3 4 6 8 12 12 12 12 11 11 9 6 2
3 4 2 2 3 4 3 2 2 4 2 1 2 2 3 5 6 6 5 4 4 3 5 5 4 4 4 4 3 2 2 3 4 4 4 3 3 3 3 3 5 6 8 5 6 6 4 3 2
5 3 3 4 3 3 4 4 3 2 2 2 3 3 3 5 5 4 4 4 4 4 5 5 4 4 4 4 3 3 3 3 3 4 4 2 2 2 3 3 3 3 3 3 3 3 3 4 4
4 3 3 5 6 5 5 4 3 2 2 3 4 5 4 4 3 3 2 2 3 4 5 5 4 4 4 4 3 4 3 3 4 3 3 3 3 3 3 3 3 4 3 4 4 4 4 4 4
4 6 5 4 5 2 4 2 2 2 3 4 4 4 3 3 2 2 2 3 3 4 5 5 5 4 4 4 3 3 3 4 3 3 4 4 3 3 3 3 3 3 4 4 4 5 5 4 4
5 6 4 1 2 2 4 2 1 2 4 4 4 3 2 2 1 1 2 3 3 4 5 5 5 4 5 5 5 4 4 4 3 4 4 4 4 4 4 3 3 3 4 4 3 4 4 4 4
4 4 1 3 3 2 3 3 2 2 5 4 3 2 1 1 1 2 3 3 4 4 5 5 6 6 6 5 5 4 4 4 4 4 4 5 5 4 3 3 4 3 3 3 4 3 3 3 3
2 1 3 2 4 3 3 4 2 2 5 4 3 1 1 2 3 3 4 4 4 4 5 5 6 6 6 6 5 5 4 4 4 3 3 4 5 4 3 3 3 3 3 4 4 4 3 3 4
4 4 3 4 4 4 3 4 1 1 4 4 3 2 2 3 4 4 5 5 5 5 5 5 6 6 6 5 4 4 4 4 4 3 4 5 4 4 4 3 4 3 3 4 4 4 4 3 3
4 4 3 2 2 4 4 4 3 2 2 3 3 3 4 4 4 4 5 5 5 5 6 6 6 6 5 3 4 4 4 5 4 4 5 5 4 5 4 4 4 3 4 4 5 4 4 3 3
3 3 1 0 2 2 1 3 3 3 4 5 5 5 4 4 4 5 5 5 5 6 6 6 6 7 6 4 3 3 4 4 4 4 5 5 5 5 4 4 4 4 4 4 5 4 3 3 4
2 4 4 3 2 3 2 4 3 2 1 2 3 4 4 4 5 5 6 6 6 6 6 6 7 7 6 5 4 4 4 4 4 4 4 4 5 5 4 4 4 4 4 4 5 5 5 4 4
2 2 3 4 3 1 1 4 6 3 3 3 4 4 4 5 5 5 6 6 7 7 6 6 7 7 6 5 4 5 4 5 5 5 5 6 5 5 4 4 4 4 4 4 5 5 4 5 4
2 3 4 2 3 1 1 1 8 1 4 6 6 5 5 5 5 5 6 6 7 6 6 6 6 6 6 6 5 5 5 5 5 5 6 6 5 4 4 4 3 3 3 4 5 5 5 4 5
5 6 6 5 5 2 2 3 8 4 6 5 4 5 5 5 5 5 5 5 6 6 6 6 6 7 7 7 6 6 7 7 8 7 6 5 4 4 4 4 3 3 3 4 5 5 6 5 5
5 6 5 5 4 5 2 3 9 5 6 5 5 6 5 4 4 5 6 6 6 7 7 6 7 7 7 7 7 6 7 7 7 7 6 6 4 4 5 4 3 3 3 3 3 4 5 6 6
3 6 6 3 4 6 3 5 8 4 2 3 4 4 4 4 4 5 5 5 6 7 6 6 7 7 7 7 7 6 6 5 4 5 5 5 4 4 5 5 3 3 3 3 3 3 4 4 6
4 2 4 6 1 3 6 7 8 1 2 2 3 3 5 5 5 5 5 5 5 6 6 6 6 7 7 7 7 7 7 6 6 6 5 4 5 5 5 5 4 3 3 2 2 3 4 4 5
4 8 5 4 1 4 7 5 5 5 7 6 5 6 6 5 5 5 5 5 5 4 5 5 5 5 6 6 6 6 6 6 6 5 6 6 6 6 6 5 4 4 3 2 1 2 3 4 4
4 4 5 4 4 4 4 9 7 6 7 7 8 7 6 6 5 5 5 4 4 5 4 5 5 5 6 6 6 6 7 6 6 6 6 6 6 6 6 5 5 4 3 3 1 2 2 3 3
3 6 7 4 3 4 3 10 5 6 6 6 7 6 5 5 4 4 4 4 4 5 5 4 5 5 5 6 6 6 6 6 6 7 7 7 6 6 6 5 5 4 3 3 1 1 2 2 3
Wind_Direction
146 118 101 68 51 47 26 342 339 26 49 34 49 69 81 67 69 100 308 132 146 151 163 177 176 173 170 170 172 173 168 165 164 164 166 166 165 164 166 164 159 157 154 151 139 127 119 110 100
127 125 77 60 69 51 356 341 14 31 97 124 57 58 64 53 42 57 356 182 144 152 153 176 184 182 181 181 182 182 181 181 181 180 180 179 178 179 179 175 170 166 164 162 159 151 136 122 106
137 99 80 64 66 78 352 339 360 31 41 44 59 50 56 26 5 355 303 141 119 128 143 197 189 191 195 196 194 193 193 194 195 196 195 192 191 190 190 191 189 186 183 182 178 174 165 146 116
101 49 53 65 63 27 339 321 315 359 33 30 61 56 57 21 352 341 47 84 90 71 38 272 209 211 215 214 213 212 213 212 211 210 208 207 205 204 206 207 206 204 206 205 201 203 202 190 153
66 73 59 55 50 17 358 349 3 36 44 23 47 69 39 1 12 41 58 62 67 58 20 322 252 249 255 246 239 235 232 230 228 226 222 221 220 219 220 221 222 221 222 221 218 221 224 220 209
61 66 75 69 18 2 15 0 11 31 31 20 34 74 51 360 18 24 42 45 42 43 15 342 324 311 298 284 267 258 250 245 241 239 234 231 231 231 229 228 230 232 233 232 227 230 234 236 236
95 85 105 133 140 8 23 15 30 19 29 12 12 74 56 9 10 24 40 42 38 32 17 358 348 336 324 315 302 287 274 264 257 251 245 240 240 240 238 235 233 233 235 236 233 234 240 245 247
113 96 92 138 161 70 351 53 49 29 25 7 33 76 33 351 12 41 47 41 35 29 17 4 351 347 339 328 328 327 312 298 283 269 258 250 245 245 245 243 242 239 236 236 234 235 241 245 249
84 79 137 192 178 169 23 73 50 37 49 36 39 61 57 44 52 52 42 31 27 24 11 3 353 352 350 341 347 339 330 325 314 296 283 270 250 243 248 249 247 246 244 240 235 234 239 244 250
77 110 183 175 156 139 84 75 88 62 44 44 46 40 48 56 58 57 48 35 21 7 2 5 357 355 350 346 345 333 332 325 314 300 293 279 260 243 246 247 252 251 249 246 239 235 235 239 233
88 127 132 104 123 121 106 82 65 110 62 66 106 73 50 58 54 52 41 28 13 356 359 357 354 352 350 339 337 334 327 324 317 310 294 279 263 255 251 241 256 258 254 248 244 239 220 202 196
90 73 111 131 128 106 117 115 86 95 150 144 129 109 79 66 54 46 36 17 6 6 354 347 350 347 343 341 333 328 327 323 316 311 305 292 272 253 244 236 234 231 229 224 218 216 211 205 204
90 101 71 92 96 95 92 91 109 105 113 100 92 83 84 77 60 44 39 25 11 358 342 337 338 343 337 336 328 332 319 315 310 308 302 290 273 265 255 239 229 227 219 215 211 208 210 214 211
98 94 90 78 83 83 101 88 106 172 130 104 96 88 85 79 64 39 18 4 350 339 332 330 332 342 344 337 322 307 306 304 306 304 298 294 274 265 259 254 238 228 223 219 209 204 205 211 208
94 86 66 65 94 128 107 57 234 184 124 110 104 98 85 57 32 12 336 326 321 321 324 326 328 350 342 331 320 317 302 303 299 296 295 294 282 268 257 249 243 231 220 214 207 205 200 202 205
79 93 169 232 170 164 138 237 240 159 133 134 132 115 83 347 329 319 317 313 314 320 324 322 335 336 330 323 313 306 302 299 293 293 293 290 285 275 259 242 242 234 218 208 200 192 195 201 199
78 181 231 232 192 163 173 230 239 152 145 157 166 185 245 302 310 310 310 307 309 314 314 316 321 321 320 318 312 305 302 299 293 291 290 289 287 279 262 248 246 238 220 213 214 196 184 196 196
209 213 227 225 199 158 188 233 228 161 158 175 188 220 257 276 283 297 306 307 310 313 312 313 316 316 318 317 315 311 310 304 299 294 290 293 288 281 268 256 248 237 227 219 214 206 188 189 188
170 175 211 236 161 154 205 234 231 196 177 196 216 235 256 267 282 298 308 312 313 316 319 316 317 316 324 322 322 317 312 308 307 301 301 301 293 285 271 264 252 232 226 223 215 202 194 190 158
127 145 183 67 89 133 195 264 254 214 210 212 216 230 248 272 293 297 304 312 311 309 313 316 315 313 315 305 294 280 283 289 286 293 300 297 296 288 281 261 250 233 226 225 214 195 183 185 169
136 173 191 175 75 56 64 312 268 255 227 223 223 231 248 259 273 289 302 305 310 310 311 315 312 311 313 316 311 312 308 305 308 309 306 302 300 291 279 272 255 237 223 225 217 200 191 185 182
226 227 161 139 122 286 117 290 284 252 265 253 242 244 260 275 280 286 296 305 306 304 310 312 314 315 318 324 325 321 319 310 299 300 296 302 298 294 287 276 262 243 227 225 222 207 198 181 185
162 60 91 104 124 25 10 225 287 299 259 257 246 244 256 268 275 283 291 296 300 307 314 317 322 322 323 328 326 320 314 302 302 305 307 310 309 303 296 286 276 254 235 227 220 209 199 196 191
110 70 55 50 67 328 243 186 280 239 227 246 237 240 253 267 280 288 296 304 308 314 322 328 331 325 329 332 331 327 321 320 324 324 323 322 315 309 312 299 279 260 245 232 221 212 205 205 202
74 79 26 357 5 263 262 212 254 254 230 222 225 236 250 262 276 290 301 308 312 317 323 330 333 326 330 334 333 330 325 322 322 322 324 326 325 318 316 316 297 272 255 241 222 211 212 209 208
106 126 149 213 247 287 308 246 257 263 249 225 222 230 249 266 272 279 286 295 302 310 323 330 330 326 331 335 331 328 330 325 321 323 325 324 319 314 313 314 310 297 274 252 227 215 215 215 216
118 108 152 130 184 290 288 285 302 223 245 234 237 244 255 263 270 275 288 298 302 311 317 321 326 327 330 334 332 331 337 335 331 329 329 325 324 323 330 329 329 325 308 275 235 225 219 213 213
111 139 98 105 130 298 301 287 264 256 246 245 242 244 252 262 272 279 287 295 303 309 312 323 329 325 325 333 335 338 336 336 334 336 338 335 334 336 335 335 335 336 331 310 259 235 226 215 212
113 95 103 108 146 162 293 280 231 229 228 227 235 237 242 248 259 269 282 295 305 316 324 330 336 336 337 337 333 337 338 337 339 342 338 334 334 338 339 334 333 333 329 321 296 259 233 215 212
177 164 147 148 208 170 202 270 267 243 241 228 236 240 240 241 249 262 279 300 313 321 326 331 333 335 333 331 333 337 338 340 345 343 340 340 339 338 339 337 338 336 332 330 328 291 256 224 212